カタログに戻る

LUCH 1

運用中通信GEO
NORAD 23680·PAYLOAD·🇷🇺 Russia

打ち上げ Oct 11, 1995 から Baikonur Cosmodrome

Loading…

TLE

最新Source: Space-Track

元期: Sep 13, 2026, 18:14 UTC

1 23680U 95054A   26256.76031815 -.00000096  00000-0  00000-0 0  9990
2 23680  15.0472 358.5263 0006785 158.8251 181.8096  1.00271089113239

AllMySatでLUCH 1をリアルタイム追跡

Download on the App Store